Wind_Speed
9 5 5 6 14 11 12 12 10 12 10 8 6 8 11 11 12 14 14 15 16 17 14 13 13 20 25 29 31 33 34 36 39 40 38 36 36 37 37 37 39 38 37 39
8 6 6 7 9 11 13 12 12 14 14 13 12 5 8 10 13 15 16 16 17 18 20 17 21 15 21 26 29 31 33 35 36 33 35 37 36 36 35 36 36 35 37 37
4 7 8 8 14 14 13 14 13 13 9 9 6 6 9 13 14 14 14 18 18 18 16 19 23 22 16 22 25 29 32 35 34 34 35 37 36 35 37 37 34 36 36 35
5 5 4 6 5 3 12 13 11 7 4 4 5 5 8 11 9 13 14 17 18 16 18 23 26 27 26 21 24 28 32 32 33 33 34 33 33 36 35 35 35 34 33 33
5 7 10 5 3 9 7 7 3 2 3 3 6 7 8 13 11 13 14 14 17 25 26 25 24 26 28 27 22 27 30 31 33 32 32 32 33 34 33 31 29 29 27 27
5 11 11 5 3 2 3 7 11 5 4 6 9 6 6 13 12 14 16 18 20 25 25 25 26 28 30 26 24 25 27 30 30 30 31 30 29 27 26 26 24 23 17 15
11 8 6 8 9 0 11 5 9 6 7 10 8 9 10 10 11 12 16 21 23 22 22 25 27 28 27 27 26 27 26 25 25 27 27 27 25 24 19 18 19 17 16 11
13 10 13 8 3 7 8 4 8 7 9 9 10 11 8 9 12 13 16 21 23 21 21 22 26 28 28 28 21 16 9 2 8 6 7 15 22 21 20 24 25 22 23 23
11 9 3 3 7 8 7 7 8 9 10 10 12 14 12 10 13 14 15 19 23 20 19 19 26 27 26 29 21 12 5 7 11 14 14 14 20 22 23 22 22 20 18 20
1 7 9 5 8 8 9 9 10 11 12 12 12 12 12 12 12 13 17 19 23 22 18 20 24 26 28 25 15 7 11 14 18 24 25 24 23 19 18 17 18 17 20 19
8 9 7 7 8 8 9 10 12 13 12 13 13 12 12 11 13 13 17 20 21 20 19 20 23 26 29 27 13 12 17 19 24 27 29 29 32 24 26 21 21 21 20 22
4 9 8 8 9 10 11 13 13 14 14 13 12 12 13 11 13 14 15 19 20 21 22 24 26 25 26 26 19 13 19 19 20 30 27 25 33 40 44 41 36 33 33 35
3 8 8 10 12 12 10 11 11 11 12 13 13 12 13 9 14 14 16 18 20 20 21 23 28 29 29 24 20 19 19 21 22 33 26 22 28 32 33 42 43 41 38 37
8 10 1 10 6 8 9 9 7 8 10 13 13 13 11 11 13 16 17 17 18 20 23 22 27 29 30 27 25 23 21 26 29 29 26 30 19 27 28 27 28 32 32 32
7 6 5 6 5 6 8 8 6 8 8 9 13 12 13 12 15 16 16 15 19 25 26 25 29 31 30 27 27 27 23 27 28 28 30 30 24 30 28 29 26 25 22 24
10 7 3 4 5 7 7 7 5 7 8 9 12 14 15 16 17 19 21 23 25 25 27 28 29 28 27 29 29 27 29 32 29 25 25 25 21 25 25 22 22 21 18 14
9 5 8 6 6 7 8 7 7 7 8 11 13 12 14 17 19 20 21 22 26 27 28 28 27 30 30 28 28 25 24 25 25 25 24 22 22 22 21 21 22 20 19 18
6 6 6 6 6 6 8 9 11 11 12 15 17 17 17 18 16 17 17 17 22 28 29 27 27 29 31 28 25 24 23 22 23 23 22 21 19 19 20 20 19 18 16 15
10 8 9 11 11 11 11 13 14 15 15 16 18 18 18 18 17 18 19 22 23 23 25 23 24 27 28 25 21 21 21 20 20 20 19 18 19 18 17 17 16 15 13 12
11 13 15 16 16 14 16 16 16 17 16 16 17 18 18 16 14 17 20 24 22 19 19 21 20 22 21 20 19 18 18 19 18 17 17 16 15 15 15 15 14 13 12 11
12 16 17 17 18 18 18 17 17 18 17 17 18 17 17 17 20 15 16 17 19 17 18 21 21 19 19 17 18 18 18 17 16 15 14 13 13 13 13 13 12 11 11 9
14 15 16 16 18 19 18 18 18 17 16 15 13 11 12 13 14 18 19 16 14 15 15 16 18 19 16 16 16 16 15 15 14 12 12 12 11 11 11 10 10 9 8 8
15 16 16 16 16 17 17 17 16 16 16 16 15 15 16 14 14 11 11 14 13 14 14 15 16 15 15 14 13 13 13 13 13 11 12 11 10 9 9 8 8 7 6 6
15 14 14 12 12 13 14 13 13 13 13 13 12 13 9 9 11 11 10 10 11 12 14 13 13 13 12 11 12 13 12 11 10 10 9 9 8 8 7 7 6 5 5 6
12 11 9 9 10 10 10 9 9 9 9 10 10 11 11 11 9 8 8 8 11 10 10 12 13 12 12 11 11 11 10 10 10 8 8 7 7 6 6 6 6 7 7 6
9 9 9 9 8 6 6 5 6 6 5 6 7 7 7 7 7 6 7 8 9 9 9 9 10 9 9 10 9 9 8 8 7 6 6 5 6 6 6 7 7 7 7 7
8 6 7 8 8 8 7 6 5 5 5 4 5 4 5 5 5 6 6 7 7 8 8 8 8 8 7 7 7 7 7 7 7 6 5 6 7 7 7 7 7 7 7 7
Wind_Direction
247 323 311 250 191 203 225 232 255 242 246 266 283 282 299 335 335 332 332 341 339 331 329 324 223 230 224 224 216 214 216 214 216 213 214 217 219 219 220 220 221 221 223 227
279 239 255 251 241 239 229 243 242 253 265 277 272 332 308 311 316 319 327 344 341 334 331 327 317 261 234 232 224 215 219 222 221 217 214 217 218 218 219 221 223 222 223 225
265 267 294 262 241 236 237 239 239 244 258 16 345 319 304 302 314 315 334 335 333 328 324 318 311 314 271 253 231 225 220 225 224 219 217 218 216 216 217 219 219 223 225 224
219 199 223 238 54 239 239 247 250 267 305 354 335 312 299 287 0 352 336 331 328 331 332 324 315 308 298 279 255 232 227 225 224 220 221 217 216 218 219 217 217 219 223 225
249 250 272 233 281 235 224 243 139 170 79 30 357 307 265 45 16 343 337 340 333 332 329 328 319 307 293 285 273 250 231 227 222 219 218 217 216 215 215 215 216 218 223 225
205 247 254 277 123 327 252 235 108 59 22 352 350 296 347 5 354 338 339 340 339 331 332 336 336 328 316 294 274 263 251 230 225 220 217 218 218 215 211 207 205 191 189 195
233 246 261 263 155 31 223 104 72 15 3 350 322 328 325 323 329 340 338 342 340 341 341 344 341 334 319 300 286 273 264 253 230 226 216 212 209 211 178 152 150 143 137 134
228 235 241 257 158 245 49 34 27 8 15 346 321 307 311 339 320 340 343 346 350 343 345 352 354 346 334 318 330 332 329 251 76 80 116 136 142 140 150 157 139 121 112 98
194 218 159 110 83 66 26 6 13 9 358 357 348 347 333 324 339 349 351 350 353 348 346 359 1 357 339 330 334 339 5 60 88 99 100 117 130 127 121 129 116 116 114 105
174 198 225 125 83 58 22 6 6 3 352 345 346 340 350 340 354 351 352 354 348 350 350 355 13 359 346 338 342 40 63 70 75 81 81 83 86 89 98 107 112 115 113 104
236 251 272 166 79 44 1 355 353 355 350 348 346 345 350 349 4 1 358 357 353 356 354 7 20 9 1 353 9 55 72 74 76 72 70 73 69 74 81 87 107 102 98 99
256 41 347 51 22 35 4 7 0 351 355 360 358 354 2 20 13 9 7 7 9 10 15 7 27 14 13 21 24 47 68 67 80 86 80 81 85 78 74 85 92 98 100 95
51 359 350 338 37 33 14 6 5 356 8 0 5 9 21 26 24 20 20 25 26 20 20 15 35 24 12 50 32 57 70 76 79 80 81 78 87 89 88 76 79 83 89 93
23 350 72 30 359 11 355 3 2 18 26 30 15 26 36 40 38 34 31 28 38 35 31 21 39 32 30 33 56 52 61 76 79 88 86 88 77 88 92 90 85 74 80 85
12 343 314 350 25 12 7 8 22 40 40 41 46 41 47 53 55 49 43 38 48 44 36 25 37 35 35 44 49 54 51 61 67 74 77 79 87 84 82 84 85 87 82 79
329 318 18 6 5 10 15 18 44 48 50 56 64 64 67 71 67 61 53 49 49 42 34 31 30 30 39 47 46 47 51 58 61 64 71 75 79 79 80 84 81 77 71 83
350 29 2 10 25 24 33 39 54 64 74 76 73 80 81 75 67 60 56 52 50 46 42 34 31 35 40 46 51 49 51 54 60 62 66 72 75 80 84 84 83 79 71 64
37 37 31 24 47 74 68 64 69 77 79 83 81 75 68 63 60 56 51 49 51 46 39 35 37 41 45 46 48 52 55 56 57 58 63 69 75 78 82 87 89 90 85 70
42 61 61 64 73 84 86 81 80 82 82 82 81 76 73 67 63 58 52 48 45 40 26 30 36 41 40 41 51 54 59 60 62 64 68 68 66 70 75 77 77 75 72 68
74 75 76 75 73 82 83 80 81 76 71 76 77 73 68 59 61 63 59 55 44 40 32 31 37 39 41 41 48 53 58 63 64 62 57 62 66 70 71 68 72 72 70 66
83 81 80 81 78 75 76 78 79 75 73 75 78 75 70 61 49 46 55 53 36 35 39 38 40 39 39 42 47 49 53 56 58 58 59 61 62 63 65 66 66 65 65 61
83 81 78 79 77 75 71 74 76 76 74 73 75 80 81 75 74 63 51 50 42 39 45 44 41 42 45 49 53 54 56 59 60 60 60 60 61 61 60 60 60 57 53 46
88 86 84 82 83 84 79 75 74 75 74 70 67 66 64 58 48 50 52 36 40 39 45 43 42 42 46 52 55 57 57 56 55 53 53 52 51 51 51 46 46 41 32 23
93 91 94 100 104 94 88 87 83 79 80 72 58 42 49 64 59 56 57 46 42 45 47 44 45 43 48 49 47 46 45 44 43 43 45 43 40 38 33 27 23 13 359 350
95 102 104 103 96 94 97 98 94 87 79 71 64 60 59 59 67 53 48 40 38 42 39 33 37 37 40 39 38 36 33 30 31 28 24 21 17 12 6 360 352 343 342 338
87 84 80 68 72 78 80 74 73 73 82 82 68 61 59 57 55 48 43 39 36 33 33 27 28 29 27 24 21 17 14 7 7 3 4 356 351 347 341 337 336 333 329 324
96 102 98 80 65 55 49 48 71 70 62 71 79 62 56 49 41 37 33 27 25 23 21 17 13 12 11 5 357 353 349 345 339 342 339 335 333 329 327 325 321 317 316 315
Height
684 685 682 673 679 686 688 683 690 683 682 670 670 672 670 669 672 673 671 671 670 666 662 659 660 666 668 671 675 680 684 687 686 689 695 702 707 711 715 719 721 724 728 731
707 692 693 691 684 682 682 683 686 682 683 668 665 667 674 676 677 677 674 678 680 677 672 667 661 657 661 664 666 670 674 675 679 686 689 692 696 700 705 709 713 717 718 720
723 703 700 703 690 686 684 679 681 686 674 670 674 679 682 680 681 680 679 681 682 681 677 673 667 660 659 657 660 662 664 666 671 675 678 681 685 690 693 697 703 706 708 710
714 710 725 683 675 675 679 675 671 674 676 680 682 681 682 680 679 684 686 685 681 680 678 675 670 664 658 654 653 653 654 657 660 664 667 672 676 679 682 686 690 694 699 702
707 699 685 676 678 682 684 680 675 679 682 683 684 685 678 680 687 688 687 687 685 681 677 674 670 664 658 650 648 644 645 646 650 652 657 661 664 667 672 678 682 687 691 694
709 710 703 683 673 680 678 690 676 685 688 690 689 693 678 684 688 690 687 688 686 683 678 673 670 665 657 648 642 641 636 636 640 643 647 651 655 661 666 670 674 676 681 685
710 707 694 678 679 684 697 698 689 693 693 695 696 692 687 689 690 691 691 688 688 687 684 681 677 673 664 653 643 637 635 633 635 638 638 643 648 656 659 662 669 676 680 685
712 712 708 680 682 694 697 693 696 699 699 700 695 689 685 690 691 692 692 691 689 688 687 685 680 673 665 655 646 641 636 632 633 636 637 639 642 648 657 663 666 677 683 688
694 693 684 681 690 697 700 700 701 702 701 701 697 694 691 691 691 696 697 699 697 693 691 687 682 678 672 665 657 651 647 643 640 640 645 646 649 654 659 666 671 679 686 689
698 680 689 683 691 698 703 704 704 704 703 705 703 700 699 701 701 704 706 704 702 698 694 691 680 681 679 670 663 656 653 652 649 646 650 654 658 663 666 671 676 684 686 691
686 682 682 682 694 704 706 706 707 708 709 708 709 707 707 706 711 714 715 714 710 707 703 696 683 684 682 676 670 665 660 658 656 657 660 666 666 672 674 678 679 687 694 697
688 693 694 692 702 708 710 712 714 716 715 718 717 717 717 719 725 725 723 721 717 714 707 703 688 691 690 682 679 676 669 668 665 657 672 681 676 682 689 688 689 695 699 704
700 711 711 708 709 716 720 723 725 725 724 724 724 725 727 731 733 732 730 726 723 721 717 713 697 699 697 686 689 687 682 678 678 664 680 691 685 687 695 706 708 708 711 715
718 717 711 721 722 730 731 731 731 732 733 735 737 737 737 738 738 737 736 735 729 726 723 722 708 709 707 700 692 697 697 688 681 684 688 688 707 694 700 707 713 721 728 728
727 727 728 730 734 736 736 736 736 739 741 743 745 745 745 744 744 744 743 742 736 731 729 731 717 717 716 713 711 702 704 696 697 698 697 699 711 704 714 715 723 727 737 741
733 728 731 735 737 738 738 739 740 745 747 749 750 752 752 751 751 750 749 747 741 738 738 736 731 731 729 723 719 717 715 710 712 715 714 716 723 718 722 730 732 736 742 748
737 730 739 738 741 745 747 748 749 752 754 754 754 756 756 755 755 755 755 755 752 750 747 747 744 739 735 732 729 730 731 730 729 727 728 730 732 734 737 740 742 746 751 755
750 751 751 750 748 750 754 756 757 758 759 759 760 761 762 762 763 764 763 763 758 756 756 756 752 747 742 741 740 740 739 741 739 740 740 743 748 745 744 747 750 754 758 760
757 757 758 757 758 759 761 763 765 766 766 766 766 768 768 769 772 771 769 767 764 763 765 763 758 754 751 751 752 751 749 749 749 751 752 755 754 753 754 753 755 757 761 764
765 765 765 766 767 768 767 769 771 771 772 772 772 773 774 776 776 775 774 773 774 774 772 768 765 763 762 763 761 760 758 757 758 761 762 761 761 761 762 762 763 763 765 769
771 771 772 773 773 774 774 775 776 777 779 779 779 781 782 783 782 779 777 778 781 779 776 774 773 772 771 769 767 767 765 764 767 767 768 768 768 769 767 766 768 768 769 772
775 776 778 779 779 780 782 782 783 784 785 786 786 786 785 786 786 787 787 787 788 786 784 783 781 779 778 777 775 776 775 774 775 776 775 773 774 774 773 772 772 773 775 776
781 783 784 785 786 787 788 789 790 790 790 791 792 792 791 791 791 790 791 793 792 791 789 787 786 785 783 783 784 784 782 781 780 781 777 777 779 779 777 778 777 778 779 780
786 787 789 790 790 790 791 793 794 795 795 796 796 795 793 794 796 797 798 798 796 795 793 792 791 791 789 789 787 785 784 785 785 782 782 783 782 781 782 781 780 781 782 783
790 791 792 792 792 794 795 796 797 797 798 799 799 800 800 800 800 801 801 800 798 797 796 795 794 792 791 790 790 789 788 787 786 785 785 785 785 785 784 783 783 783 783 782
793 795 796 796 796 796 796 797 797 798 799 801 803 803 804 803 803 803 803 802 801 799 798 797 796 795 794 793 793 792 791 790 790 789 789 788 787 786 786 785 784 784 783 782
798 797 798 799 801 801 800 800 800 802 803 803 805 805 806 806 806 805 804 803 802 801 800 799 798 798 797 796 795 794 793 792 791 790 789 788 788 787 786 785 785 784 783 782